When you browse on this site, cookies collect data to enhance your experience and personalize the content and advertising you see.
Visit our Privacy Policy to learn more. By continuing to use the site, you agree to this use of cookies and data.
  • en France
  • Liste des pays
  • À 7 jours
  • Température de l'eau
  • Carte météo
  • Widgets météo
  • user-avatar
    Se connecter

    Météo par heure à Kribi

    Ce jour, 4 Avril, Samedi

    Heure Température Précipitation Vent Pression Humidité
    00:00 +28°C° 0.6 mm 2 m/s 756 mmHg 93%
    01:00 +28°C° 0 mm 1 m/s 757 mmHg 94%
    02:00 +28°C° 1.5 mm 1 m/s 756 mmHg 95%
    03:00 +27°C° 1.5 mm 1 m/s 756 mmHg 95%
    04:00 +27°C° 1.5 mm 1 m/s 755 mmHg 95%
    05:00 +27°C° 4.8 mm 2 m/s 756 mmHg 96%
    06:00 +27°C° 4.8 mm 4 m/s 757 mmHg 96%
    07:00 +26°C° 0 mm 4 m/s 758 mmHg 96%
    08:00 +26°C° 0.2 mm 4 m/s 758 mmHg 95%
    09:00 +27°C° 0.2 mm 3 m/s 758 mmHg 94%
    10:00 +27°C° 0.2 mm 3 m/s 758 mmHg 94%
    11:00 +28°C° 0 mm 3 m/s 758 mmHg 88%
    12:00 +28°C° 0 mm 3 m/s 758 mmHg 83%
    13:00 +28°C° 0 mm 2 m/s 757 mmHg 81%
    14:00 +28°C° 0 mm 2 m/s 757 mmHg 82%
    15:00 +27°C° 0 mm 3 m/s 756 mmHg 84%
    16:00 +27°C° 0 mm 3 m/s 755 mmHg 85%
    17:00 +27°C° 0 mm 3 m/s 756 mmHg 86%
    18:00 +27°C° 0 mm 3 m/s 756 mmHg 88%
    19:00 +26°C° 0 mm 3 m/s 757 mmHg 89%
    20:00 +26°C° 0 mm 3 m/s 758 mmHg 89%
    21:00 +26°C° 0 mm 2 m/s 758 mmHg 90%
    22:00 +26°C° 0 mm 2 m/s 758 mmHg 90%
    23:00 +26°C° 0 mm 2 m/s 758 mmHg 91%

    Demain, 5 Avril, Dimanche

    Heure Température Précipitation Vent Pression Humidité
    00:00 +25°C° 0 mm 1 m/s 758 mmHg 92%
    01:00 +25°C° 0 mm 1 m/s 758 mmHg 93%
    02:00 +25°C° 0 mm 1 m/s 758 mmHg 94%
    03:00 +25°C° 0 mm 2 m/s 757 mmHg 94%
    04:00 +25°C° 0 mm 2 m/s 757 mmHg 95%
    05:00 +25°C° 0 mm 2 m/s 757 mmHg 94%
    06:00 +25°C° 0 mm 2 m/s 757 mmHg 92%
    07:00 +25°C° 0 mm 2 m/s 757 mmHg 91%
    08:00 +28°C° 0 mm 2 m/s 757 mmHg 81%
    09:00 +30°C° 0 mm 2 m/s 758 mmHg 72%
    10:00 +32°C° 0 mm 2 m/s 758 mmHg 62%
    11:00 +35°C° 0 mm 2 m/s 757 mmHg 56%
    12:00 +37°C° 0 mm 2 m/s 757 mmHg 50%
    13:00 +39°C° 0 mm 2 m/s 756 mmHg 44%
    14:00 +38°C° 0 mm 2 m/s 755 mmHg 48%
    15:00 +37°C° 0 mm 3 m/s 754 mmHg 51%
    16:00 +36°C° 0 mm 3 m/s 753 mmHg 54%
    17:00 +34°C° 0.1 mm 3 m/s 754 mmHg 64%
    18:00 +31°C° 0.1 mm 3 m/s 754 mmHg 74%
    19:00 +28°C° 0.1 mm 2 m/s 755 mmHg 84%
    20:00 +28°C° 0.2 mm 3 m/s 755 mmHg 86%
    21:00 +27°C° 0.2 mm 3 m/s 756 mmHg 89%
    22:00 +27°C° 0.2 mm 3 m/s 756 mmHg 92%
    23:00 +27°C° 0.2 mm 3 m/s 756 mmHg 93%

    Après-demain, 6 Avril, Lundi

    Heure Température Précipitation Vent Pression Humidité
    00:00 +27°C° 0.2 mm 3 m/s 756 mmHg 94%
    01:00 +26°C° 0.2 mm 3 m/s 756 mmHg 95%
    02:00 +26°C° 0.3 mm 3 m/s 756 mmHg 95%
    03:00 +26°C° 0.3 mm 3 m/s 756 mmHg 96%
    04:00 +26°C° 0.3 mm 3 m/s 756 mmHg 96%
    05:00 +26°C° 0 mm 3 m/s 756 mmHg 95%
    06:00 +27°C° 0 mm 3 m/s 757 mmHg 95%
    07:00 +27°C° 0 mm 3 m/s 757 mmHg 94%
    08:00 +29°C° 0.1 mm 2 m/s 757 mmHg 85%
    09:00 +31°C° 0.1 mm 2 m/s 758 mmHg 76%
    10:00 +33°C° 0.1 mm 1 m/s 758 mmHg 67%
    11:00 +35°C° 0.4 mm 2 m/s 757 mmHg 68%
    12:00 +35°C° 0.4 mm 2 m/s 757 mmHg 68%
    13:00 +35°C° 0.4 mm 3 m/s 756 mmHg 68%
    14:00 +34°C° 0.3 mm 3 m/s 756 mmHg 74%
    15:00 +31°C° 0.3 mm 3 m/s 755 mmHg 80%
    16:00 +30°C° 0.3 mm 4 m/s 755 mmHg 86%
    17:00 +29°C° 0.3 mm 3 m/s 755 mmHg 88%
    18:00 +29°C° 0.3 mm 3 m/s 756 mmHg 91%
    19:00 +28°C° 0.3 mm 2 m/s 756 mmHg 93%
    20:00 +28°C° 0 mm 2 m/s 756 mmHg 94%
    21:00 +28°C° 0 mm 2 m/s 757 mmHg 94%
    22:00 +27°C° 0 mm 2 m/s 757 mmHg 94%
    23:00 +27°C° 0.7 mm 2 m/s 757 mmHg 95%

    7 Avril, Mardi

    Heure Température Précipitation Vent Pression Humidité
    00:00 +27°C° 0.7 mm 2 m/s 757 mmHg 95%
    01:00 +27°C° 0.7 mm 2 m/s 757 mmHg 96%
    02:00 +27°C° 1.2 mm 2 m/s 757 mmHg 96%
    03:00 +27°C° 1.2 mm 1 m/s 756 mmHg 96%
    04:00 +27°C° 1.2 mm 1 m/s 756 mmHg 96%
    05:00 +26°C° 2.3 mm 2 m/s 756 mmHg 95%
    06:00 +26°C° 2.3 mm 3 m/s 757 mmHg 95%
    07:00 +26°C° 2.3 mm 4 m/s 757 mmHg 94%
    08:00 +27°C° 0.1 mm 3 m/s 758 mmHg 89%
    09:00 +28°C° 0.1 mm 2 m/s 758 mmHg 83%
    10:00 +29°C° 0.1 mm 1 m/s 758 mmHg 78%
    11:00 +31°C° 0 mm 1 m/s 757 mmHg 71%
    12:00 +32°C° 0 mm 2 m/s 757 mmHg 65%
    13:00 +35°C° 0 mm 2 m/s 756 mmHg 58%
    14:00 +34°C° 0 mm 2 m/s 756 mmHg 60%
    15:00 +34°C° 0 mm 2 m/s 755 mmHg 62%
    16:00 +33°C° 0 mm 3 m/s 755 mmHg 65%
    17:00 +31°C° 0 mm 2 m/s 755 mmHg 70%
    18:00 +29°C° 0 mm 2 m/s 756 mmHg 76%
    19:00 +28°C° 0 mm 1 m/s 756 mmHg 82%
    20:00 +28°C° 0 mm 1 m/s 756 mmHg 84%
    21:00 +27°C° 0 mm 1 m/s 757 mmHg 86%
    22:00 +25°C° 0 mm 0 m/s 757 mmHg 88%
    23:00 +25°C° 0 mm 0 m/s 757 mmHg 89%

    8 Avril, Mercredi

    Heure Température Précipitation Vent Pression Humidité
    00:00 +25°C° 0 mm 0 m/s 756 mmHg 90%
    01:00 +24°C° 0 mm 0 m/s 756 mmHg 92%
    02:00 +26°C° 0 mm 1 m/s 756 mmHg 92%
    03:00 +26°C° 0 mm 1 m/s 756 mmHg 93%
    04:00 +26°C° 0 mm 2 m/s 756 mmHg 94%
    05:00 +26°C° 0 mm 2 m/s 757 mmHg 93%
    06:00 +27°C° 0 mm 2 m/s 757 mmHg 92%
    07:00 +27°C° 0 mm 2 m/s 757 mmHg 90%
    08:00 +30°C° 0.1 mm 2 m/s 758 mmHg 80%
    09:00 +32°C° 0.1 mm 1 m/s 758 mmHg 69%
    10:00 +33°C° 0.1 mm 0 m/s 758 mmHg 59%
    11:00 +35°C° 0 mm 1 m/s 757 mmHg 58%
    12:00 +36°C° 0 mm 2 m/s 756 mmHg 58%
    13:00 +35°C° 0 mm 3 m/s 756 mmHg 58%
    14:00 +34°C° 0 mm 3 m/s 755 mmHg 64%
    15:00 +33°C° 0 mm 3 m/s 755 mmHg 69%
    16:00 +31°C° 0 mm 3 m/s 754 mmHg 75%
    17:00 +30°C° 0 mm 3 m/s 754 mmHg 79%
    18:00 +29°C° 0 mm 3 m/s 755 mmHg 83%
    19:00 +28°C° 0 mm 3 m/s 755 mmHg 87%
    20:00 +28°C° 0 mm 3 m/s 755 mmHg 89%
    21:00 +28°C° 0 mm 3 m/s 756 mmHg 90%
    22:00 +28°C° 0 mm 3 m/s 756 mmHg 92%
    23:00 +28°C° 0 mm 3 m/s 756 mmHg 93%

    9 Avril, Jeudi

    Heure Température Précipitation Vent Pression Humidité
    00:00 +27°C° 0 mm 2 m/s 755 mmHg 94%
    01:00 +27°C° 0 mm 2 m/s 755 mmHg 95%
    02:00 +27°C° 0 mm 2 m/s 755 mmHg 96%
    03:00 +27°C° 0 mm 1 m/s 755 mmHg 96%
    04:00 +26°C° 0 mm 1 m/s 755 mmHg 97%
    05:00 +27°C° 0.1 mm 1 m/s 755 mmHg 96%
    06:00 +27°C° 0.1 mm 1 m/s 756 mmHg 95%
    07:00 +27°C° 0.1 mm 2 m/s 756 mmHg 93%
    08:00 +29°C° 0.2 mm 1 m/s 757 mmHg 83%
    09:00 +32°C° 0.2 mm 1 m/s 757 mmHg 72%
    10:00 +34°C° 0.2 mm 1 m/s 758 mmHg 62%
    11:00 +33°C° 0.2 mm 1 m/s 757 mmHg 68%
    12:00 +32°C° 0.2 mm 2 m/s 756 mmHg 74%
    13:00 +31°C° 0.2 mm 3 m/s 756 mmHg 79%
    14:00 +31°C° 0 mm 3 m/s 755 mmHg 76%
    15:00 +33°C° 0 mm 3 m/s 754 mmHg 72%
    16:00 +34°C° 0 mm 3 m/s 754 mmHg 68%
    17:00 +31°C° 0.2 mm 3 m/s 754 mmHg 75%
    18:00 +30°C° 0.2 mm 2 m/s 755 mmHg 82%
    19:00 +28°C° 0.2 mm 2 m/s 755 mmHg 89%
    20:00 +28°C° 0.5 mm 2 m/s 756 mmHg 90%
    21:00 +28°C° 0.5 mm 1 m/s 756 mmHg 91%
    22:00 +28°C° 0.5 mm 1 m/s 756 mmHg 92%
    23:00 +27°C° 1.1 mm 1 m/s 756 mmHg 93%
    Voir plus